Time,TemperatureF,DewpointF,PressureIn,WindDirection,WindDirectionDegrees,WindSpeedMPH,WindSpeedGustMPH,Humidity,HourlyPrecipIn,Conditions,Clouds,dailyrainin,SoftwareType,DateUTC
2013-01-26 00:00:00,35.2,34.7,29.88,SSW,202,0.0,0.0,98,0.00,,---,0.46,VWS V14.01,2013-01-26 08:00:00,
2013-01-26 00:05:00,35.4,34.9,29.88,SW,225,3.4,3.4,98,0.00,,---,0.00,VWS V14.01,2013-01-26 08:05:00,
2013-01-26 00:10:00,35.6,35.1,29.88,NW,315,0.0,0.0,98,0.00,,---,0.00,VWS V14.01,2013-01-26 08:10:00,
2013-01-26 00:16:00,35.8,35.3,29.88,East,90,2.9,2.9,98,0.00,,---,0.00,VWS V14.01,2013-01-26 08:16:00,
2013-01-26 00:21:00,36.0,35.5,29.88,NW,315,2.7,2.7,98,0.00,,---,0.00,VWS V14.01,2013-01-26 08:21:00,
2013-01-26 00:26:00,36.3,35.8,29.88,SSE,158,0.0,0.0,98,0.00,,---,0.00,VWS V14.01,2013-01-26 08:26:00,
2013-01-26 00:31:00,36.9,36.3,29.85,ENE,68,2.0,2.0,98,0.00,,---,0.00,VWS V14.01,2013-01-26 08:31:00,
2013-01-26 00:36:00,37.4,36.9,29.85,NNE,22,2.9,2.9,98,0.00,,---,0.00,VWS V14.01,2013-01-26 08:36:00,
2013-01-26 00:41:00,37.4,36.9,29.85,NNE,22,0.0,0.0,98,0.00,,---,0.00,VWS V14.01,2013-01-26 08:41:00,
2013-01-26 00:46:00,37.2,36.7,29.85,ESE,112,1.3,1.3,98,0.00,,---,0.00,VWS V14.01,2013-01-26 08:46:00,
2013-01-26 00:51:00,37.0,36.5,29.85,SE,135,0.0,0.0,98,0.00,,---,0.00,VWS V14.01,2013-01-26 08:51:00,
2013-01-26 00:56:00,37.0,36.5,29.85,NNW,338,0.0,0.0,98,0.00,,---,0.00,VWS V14.01,2013-01-26 08:56:00,
2013-01-26 01:01:00,37.0,36.5,29.85,WSW,248,0.0,0.0,98,0.00,,---,0.00,VWS V14.01,2013-01-26 09:01:00,
2013-01-26 01:06:00,37.0,36.5,29.85,WSW,248,0.0,0.0,98,0.00,,---,0.00,VWS V14.01,2013-01-26 09:06:00,
2013-01-26 01:11:00,37.2,36.7,29.85,WSW,248,0.0,0.0,98,0.00,,---,0.00,VWS V14.01,2013-01-26 09:11:00,
2013-01-26 01:16:00,37.2,36.7,29.85,WNW,292,2.9,2.9,98,0.00,,---,0.00,VWS V14.01,2013-01-26 09:16:00,
2013-01-26 01:21:00,37.4,36.9,29.85,WSW,248,0.0,0.0,98,0.00,,---,0.00,VWS V14.01,2013-01-26 09:21:00,
2013-01-26 01:27:00,37.4,36.9,29.85,NW,315,2.5,2.5,98,0.00,,---,0.00,VWS V14.01,2013-01-26 09:27:00,
2013-01-26 01:32:00,37.4,36.9,29.85,WSW,248,0.0,0.0,98,0.00,,---,0.00,VWS V14.01,2013-01-26 09:32:00,
2013-01-26 01:37:00,37.8,37.2,29.85,WNW,292,2.0,2.0,98,0.00,,---,0.00,VWS V14.01,2013-01-26 09:37:00,
2013-01-26 01:42:00,37.8,37.2,29.85,WNW,292,0.0,0.0,98,0.00,,---,0.00,VWS V14.01,2013-01-26 09:42:00,
2013-01-26 01:47:00,37.8,37.2,29.88,East,90,0.0,0.0,98,0.00,,---,0.00,VWS V14.01,2013-01-26 09:47:00,
2013-01-26 01:52:00,38.1,37.6,29.88,WSW,248,2.9,2.9,98,0.00,,---,0.00,VWS V14.01,2013-01-26 09:52:00,
2013-01-26 01:57:00,38.1,37.6,29.88,SSW,202,4.7,4.7,98,0.00,,---,0.00,VWS V14.01,2013-01-26 09:57:00,
2013-01-26 02:02:00,38.1,37.6,29.88,SW,225,3.1,3.1,98,0.00,,---,0.00,VWS V14.01,2013-01-26 10:02:00,
2013-01-26 02:07:00,37.9,37.4,29.88,SSW,202,3.6,3.6,98,0.00,,---,0.00,VWS V14.01,2013-01-26 10:07:00,
2013-01-26 02:12:00,37.9,37.4,29.88,WSW,248,3.1,3.1,98,0.00,,---,0.00,VWS V14.01,2013-01-26 10:12:00,
2013-01-26 02:17:00,37.8,37.2,29.88,WNW,292,3.6,3.6,98,0.00,,---,0.00,VWS V14.01,2013-01-26 10:17:00,
2013-01-26 02:23:00,37.6,37.1,29.88,WSW,248,3.1,3.1,98,0.00,,---,0.00,VWS V14.01,2013-01-26 10:23:00,
2013-01-26 02:28:00,37.6,37.1,29.88,NNE,22,1.6,1.6,98,0.00,,---,0.00,VWS V14.01,2013-01-26 10:28:00,
2013-01-26 02:33:00,37.4,36.9,29.88,SSW,202,2.9,2.9,98,0.00,,---,0.00,VWS V14.01,2013-01-26 10:33:00,
2013-01-26 02:38:00,37.2,36.7,29.88,WSW,248,4.3,4.3,98,0.00,,---,0.00,VWS V14.01,2013-01-26 10:38:00,
2013-01-26 02:43:00,37.0,36.5,29.88,West,270,3.1,3.1,98,0.00,,---,0.00,VWS V14.01,2013-01-26 10:43:00,
2013-01-26 02:48:00,37.0,36.5,29.85,SSE,158,1.6,1.6,98,0.00,,---,0.00,VWS V14.01,2013-01-26 10:48:00,
2013-01-26 02:53:00,36.9,36.3,29.85,ESE,112,2.7,2.7,98,0.00,,---,0.00,VWS V14.01,2013-01-26 10:53:00,
2013-01-26 02:58:00,36.7,36.2,29.85,SE,135,2.5,2.5,98,0.00,,---,0.00,VWS V14.01,2013-01-26 10:58:00,
2013-01-26 03:03:00,36.7,36.2,29.85,NW,315,0.0,0.0,98,0.00,,---,0.00,VWS V14.01,2013-01-26 11:03:00,
2013-01-26 03:08:00,36.7,36.2,29.85,NNE,22,0.0,0.0,98,0.00,,---,0.00,VWS V14.01,2013-01-26 11:08:00,
2013-01-26 03:14:00,36.7,36.2,29.85,North,0,1.6,1.6,98,0.00,,---,0.00,VWS V14.01,2013-01-26 11:14:00,
2013-01-26 03:19:00,36.7,36.2,29.82,WNW,292,1.1,1.1,98,0.00,,---,0.00,VWS V14.01,2013-01-26 11:19:00,
2013-01-26 03:24:00,36.7,36.2,29.82,NE,45,4.0,4.0,98,0.00,,---,0.00,VWS V14.01,2013-01-26 11:24:00,
2013-01-26 03:29:00,36.7,36.2,29.82,ENE,68,3.8,3.8,98,0.00,,---,0.00,VWS V14.01,2013-01-26 11:29:00,
2013-01-26 03:34:00,36.7,36.2,29.82,ESE,112,3.8,3.8,98,0.00,,---,0.00,VWS V14.01,2013-01-26 11:34:00,
2013-01-26 03:39:00,36.5,36.0,29.82,SSW,202,0.0,0.0,98,0.00,,---,0.00,VWS V14.01,2013-01-26 11:39:00,
2013-01-26 03:44:00,36.3,35.8,29.82,West,270,2.9,2.9,98,0.00,,---,0.00,VWS V14.01,2013-01-26 11:44:00,
2013-01-26 03:49:00,36.5,36.0,29.85,WSW,248,4.3,4.3,98,0.00,,---,0.00,VWS V14.01,2013-01-26 11:49:00,
2013-01-26 03:54:00,36.3,35.8,29.85,WNW,292,2.7,2.7,98,0.00,,---,0.00,VWS V14.01,2013-01-26 11:54:00,
2013-01-26 04:00:00,36.1,35.6,29.85,West,270,4.9,4.9,98,0.00,,---,0.00,VWS V14.01,2013-01-26 12:00:00,
2013-01-26 04:05:00,36.0,35.5,29.88,West,270,1.1,1.1,98,0.00,,---,0.00,VWS V14.01,2013-01-26 12:05:00,
2013-01-26 04:10:00,35.8,35.3,29.88,WNW,292,3.4,3.4,98,0.00,,---,0.00,VWS V14.01,2013-01-26 12:10:00,
2013-01-26 04:15:00,35.8,35.3,29.88,WNW,292,3.4,3.4,98,0.00,,---,0.00,VWS V14.01,2013-01-26 12:15:00,
2013-01-26 04:20:00,35.8,35.3,29.85,WSW,248,5.4,5.4,98,0.00,,---,0.00,VWS V14.01,2013-01-26 12:20:00,
2013-01-26 04:25:00,35.8,35.3,29.85,WNW,292,5.4,5.4,98,0.00,,---,0.00,VWS V14.01,2013-01-26 12:25:00,
2013-01-26 04:30:00,35.6,35.1,29.85,West,270,3.8,3.8,98,0.00,,---,0.00,VWS V14.01,2013-01-26 12:30:00,
2013-01-26 04:35:00,35.6,35.1,29.85,WNW,292,2.2,2.2,98,0.00,,---,0.00,VWS V14.01,2013-01-26 12:35:00,
2013-01-26 04:40:00,35.6,35.1,29.85,WSW,248,0.0,0.0,98,0.00,,---,0.00,VWS V14.01,2013-01-26 12:40:00,
2013-01-26 04:45:00,35.4,34.9,29.82,WNW,292,0.0,0.0,98,0.00,,---,0.00,VWS V14.01,2013-01-26 12:45:00,
2013-01-26 04:51:00,35.4,34.9,29.82,SSW,202,1.6,1.6,98,0.00,,---,0.00,VWS V14.01,2013-01-26 12:51:00,
2013-01-26 04:55:00,35.4,34.9,29.82,WSW,248,2.2,2.2,98,0.00,,---,0.00,VWS V14.01,2013-01-26 12:55:00,
2013-01-26 05:01:00,35.4,34.9,29.82,WNW,292,2.7,2.7,98,0.00,,---,0.00,VWS V14.01,2013-01-26 13:01:00,
2013-01-26 05:06:00,35.4,34.9,29.82,West,270,1.1,1.1,98,0.00,,---,0.00,VWS V14.01,2013-01-26 13:06:00,
2013-01-26 05:11:00,35.4,34.9,29.82,SW,225,2.7,2.7,98,0.00,,---,0.00,VWS V14.01,2013-01-26 13:11:00,
2013-01-26 05:16:00,35.4,34.9,29.82,West,270,1.3,1.3,98,0.00,,---,0.00,VWS V14.01,2013-01-26 13:16:00,
2013-01-26 05:21:00,35.2,34.7,29.82,West,270,2.0,2.0,98,0.00,,---,0.00,VWS V14.01,2013-01-26 13:21:00,
2013-01-26 05:26:00,35.2,34.7,29.82,WNW,292,0.9,0.9,98,0.00,,---,0.00,VWS V14.01,2013-01-26 13:26:00,
2013-01-26 05:31:00,35.2,34.7,29.85,WSW,248,1.6,1.6,98,0.00,,---,0.00,VWS V14.01,2013-01-26 13:31:00,
2013-01-26 05:36:00,35.2,34.7,29.85,West,270,3.4,3.4,98,0.00,,---,0.00,VWS V14.01,2013-01-26 13:36:00,
2013-01-26 05:41:00,35.1,34.5,29.85,West,270,1.6,1.6,98,0.00,,---,0.00,VWS V14.01,2013-01-26 13:41:00,
2013-01-26 05:46:00,35.1,34.5,29.85,SW,225,2.7,2.7,98,0.00,,---,0.00,VWS V14.01,2013-01-26 13:46:00,
2013-01-26 05:51:00,35.1,34.5,29.85,West,270,0.0,0.0,98,0.00,,---,0.00,VWS V14.01,2013-01-26 13:51:00,
2013-01-26 05:56:00,35.1,34.5,29.85,WNW,292,2.5,2.5,98,0.00,,---,0.00,VWS V14.01,2013-01-26 13:56:00,
2013-01-26 06:01:00,35.1,34.5,29.85,West,270,2.0,2.0,98,0.00,,---,0.00,VWS V14.01,2013-01-26 14:01:00,
2013-01-26 06:07:00,35.1,34.5,29.85,WSW,248,3.1,3.1,98,0.00,,---,0.00,VWS V14.01,2013-01-26 14:07:00,
2013-01-26 06:12:00,34.9,34.4,29.85,NW,315,2.5,2.5,98,0.00,,---,0.00,VWS V14.01,2013-01-26 14:12:00,
2013-01-26 06:17:00,34.9,34.4,29.82,WNW,292,0.0,0.0,98,0.00,,---,0.00,VWS V14.01,2013-01-26 14:17:00,
2013-01-26 06:22:00,34.9,34.4,29.82,WSW,248,1.1,1.1,98,0.00,,---,0.00,VWS V14.01,2013-01-26 14:22:00,
2013-01-26 06:27:00,34.7,34.2,29.82,WSW,248,3.6,3.6,98,0.00,,---,0.00,VWS V14.01,2013-01-26 14:27:00,
2013-01-26 06:32:00,34.7,34.2,29.85,NW,315,2.0,2.0,98,0.00,,---,0.00,VWS V14.01,2013-01-26 14:32:00,
2013-01-26 06:37:00,34.7,34.2,29.85,WNW,292,3.1,3.1,98,0.00,,---,0.00,VWS V14.01,2013-01-26 14:37:00,
2013-01-26 06:42:00,34.5,34.0,29.85,WSW,248,0.0,0.0,98,0.00,,---,0.00,VWS V14.01,2013-01-26 14:42:00,
2013-01-26 06:47:00,34.5,34.0,29.85,West,270,0.0,0.0,98,0.00,,---,0.00,VWS V14.01,2013-01-26 14:47:00,
2013-01-26 06:52:00,34.5,34.0,29.85,WNW,292,0.0,0.0,98,0.00,,---,0.00,VWS V14.01,2013-01-26 14:52:00,
2013-01-26 06:57:00,34.5,34.0,29.85,West,270,0.0,0.0,98,0.00,,---,0.00,VWS V14.01,2013-01-26 14:57:00,
2013-01-26 07:02:00,34.5,34.0,29.85,SW,225,0.0,0.0,98,0.00,,---,0.00,VWS V14.01,2013-01-26 15:02:00,
2013-01-26 07:08:00,34.5,34.0,29.85,WNW,292,1.1,1.1,98,0.00,,---,0.00,VWS V14.01,2013-01-26 15:08:00,
2013-01-26 07:13:00,34.5,34.0,29.85,West,270,2.5,2.5,98,0.00,,---,0.00,VWS V14.01,2013-01-26 15:13:00,
2013-01-26 07:18:00,34.5,34.0,29.85,WNW,292,1.6,1.6,98,0.00,,---,0.00,VWS V14.01,2013-01-26 15:18:00,
2013-01-26 07:34:00,34.5,34.0,29.82,WSW,248,0.0,0.0,98,0.00,,---,0.00,VWS V14.01,2013-01-26 15:34:00,
2013-01-26 07:39:00,34.5,34.0,29.82,WSW,248,0.9,0.9,98,0.00,,---,0.00,VWS V14.01,2013-01-26 15:39:00,
2013-01-26 07:45:00,34.5,34.0,29.82,WNW,292,4.0,4.0,98,0.00,,---,0.00,VWS V14.01,2013-01-26 15:45:00,
2013-01-26 07:50:00,34.7,34.2,29.85,WNW,292,5.4,5.4,98,0.00,,---,0.00,VWS V14.01,2013-01-26 15:50:00,
2013-01-26 07:55:00,34.7,34.2,29.85,SW,225,5.8,5.8,98,0.00,,---,0.00,VWS V14.01,2013-01-26 15:55:00,
2013-01-26 08:00:00,34.7,34.2,29.85,WNW,292,1.6,1.6,98,0.00,,---,0.00,VWS V14.01,2013-01-26 16:00:00,
2013-01-26 08:05:00,34.7,34.2,29.85,SW,225,4.9,4.9,98,0.00,,---,0.00,VWS V14.01,2013-01-26 16:05:00,
2013-01-26 08:10:00,34.7,34.2,29.85,WSW,248,1.6,1.6,98,0.00,,---,0.00,VWS V14.01,2013-01-26 16:10:00,
2013-01-26 08:15:00,34.5,34.0,29.85,WSW,248,1.1,1.1,98,0.00,,---,0.00,VWS V14.01,2013-01-26 16:15:00,
2013-01-26 08:20:00,34.5,34.0,29.85,WSW,248,0.0,0.0,98,0.00,,---,0.00,VWS V14.01,2013-01-26 16:20:00,
2013-01-26 08:25:00,34.5,34.0,29.85,SW,225,0.0,0.0,98,0.00,,---,0.00,VWS V14.01,2013-01-26 16:25:00,
2013-01-26 08:30:00,34.5,34.0,29.85,WSW,248,2.0,2.0,98,0.00,,---,0.00,VWS V14.01,2013-01-26 16:30:00,
2013-01-26 08:35:00,34.5,34.0,29.85,WSW,248,1.3,1.3,98,0.00,,---,0.00,VWS V14.01,2013-01-26 16:35:00,
2013-01-26 08:40:00,34.5,34.0,29.85,WSW,248,0.0,0.0,98,0.00,,---,0.00,VWS V14.01,2013-01-26 16:40:00,
2013-01-26 08:45:00,34.5,34.0,29.85,WSW,248,2.5,2.5,98,0.00,,---,0.00,VWS V14.01,2013-01-26 16:45:00,
2013-01-26 08:50:00,34.3,33.8,29.85,WNW,292,2.7,2.7,98,0.00,,---,0.00,VWS V14.01,2013-01-26 16:50:00,
2013-01-26 08:56:00,34.3,33.8,29.85,West,270,0.0,0.0,98,0.00,,---,0.00,VWS V14.01,2013-01-26 16:56:00,
2013-01-26 09:01:00,34.3,33.6,29.85,South,180,0.0,0.0,97,0.00,,---,0.00,VWS V14.01,2013-01-26 17:01:00,
2013-01-26 09:06:00,34.5,33.8,29.85,WSW,248,0.0,0.0,97,0.00,,---,0.00,VWS V14.01,2013-01-26 17:06:00,
2013-01-26 09:11:00,34.5,33.8,29.85,WSW,248,1.1,1.1,97,0.00,,---,0.00,VWS V14.01,2013-01-26 17:11:00,
2013-01-26 09:16:00,34.5,33.8,29.85,SW,225,0.9,0.9,97,0.00,,---,0.00,VWS V14.01,2013-01-26 17:16:00,
2013-01-26 09:21:00,34.5,33.8,29.85,WSW,248,3.8,3.8,97,0.00,,---,0.00,VWS V14.01,2013-01-26 17:21:00,
2013-01-26 09:26:00,34.5,33.8,29.85,West,270,0.0,0.0,97,0.00,,---,0.00,VWS V14.01,2013-01-26 17:26:00,
2013-01-26 09:31:00,34.5,33.8,29.88,WSW,248,0.0,0.0,97,0.00,,---,0.00,VWS V14.01,2013-01-26 17:31:00,
2013-01-26 09:36:00,34.5,33.8,29.88,WSW,248,0.0,0.0,97,0.00,,---,0.00,VWS V14.01,2013-01-26 17:36:00,
2013-01-26 09:41:00,34.5,33.8,29.88,WSW,248,0.0,0.0,97,0.00,,---,0.00,VWS V14.01,2013-01-26 17:41:00,
2013-01-26 09:46:00,34.7,33.9,29.88,SW,225,0.0,0.0,97,0.00,,---,0.00,VWS V14.01,2013-01-26 17:46:00,
2013-01-26 09:51:00,34.7,33.9,29.88,SSW,202,3.1,3.1,97,0.00,,---,0.00,VWS V14.01,2013-01-26 17:51:00,
2013-01-26 09:56:00,34.7,33.7,29.88,West,270,2.7,2.7,96,0.00,,---,0.00,VWS V14.01,2013-01-26 17:56:00,
2013-01-26 10:02:00,34.5,33.2,29.88,WSW,248,1.3,1.3,95,0.00,,---,0.00,VWS V14.01,2013-01-26 18:02:00,
2013-01-26 10:07:00,34.5,33.0,29.88,West,270,1.6,1.6,94,0.00,,---,0.00,VWS V14.01,2013-01-26 18:07:00,
2013-01-26 10:12:00,34.7,32.9,29.88,NW,315,0.0,0.0,93,0.00,,---,0.00,VWS V14.01,2013-01-26 18:12:00,
2013-01-26 10:17:00,34.7,32.6,29.88,WSW,248,3.6,3.6,92,0.00,,---,0.00,VWS V14.01,2013-01-26 18:17:00,
2013-01-26 10:22:00,34.9,32.2,29.88,WSW,248,3.1,3.1,90,0.00,,---,0.00,VWS V14.01,2013-01-26 18:22:00,
2013-01-26 10:27:00,35.1,32.4,29.88,SW,225,2.5,2.5,90,0.00,,---,0.00,VWS V14.01,2013-01-26 18:27:00,
2013-01-26 10:32:00,35.6,33.0,29.88,SSW,202,3.1,3.1,90,0.00,,---,0.00,VWS V14.01,2013-01-26 18:32:00,
2013-01-26 10:37:00,36.3,33.7,29.88,WNW,292,0.0,0.0,90,0.00,,---,0.00,VWS V14.01,2013-01-26 18:37:00,
2013-01-26 10:42:00,36.7,33.5,29.88,SSE,158,4.0,4.0,88,0.00,,---,0.00,VWS V14.01,2013-01-26 18:42:00,
2013-01-26 10:47:00,37.2,33.7,29.88,WNW,292,0.0,0.0,87,0.00,,---,0.00,VWS V14.01,2013-01-26 18:47:00,
2013-01-26 10:52:00,38.3,34.8,29.88,SSE,158,2.5,2.5,87,0.00,,---,0.00,VWS V14.01,2013-01-26 18:52:00,
2013-01-26 10:58:00,38.5,33.5,29.88,South,180,1.6,1.6,82,0.00,,---,0.00,VWS V14.01,2013-01-26 18:58:00,
2013-01-26 11:03:00,38.7,33.0,29.88,WNW,292,0.0,0.0,80,0.00,,---,0.00,VWS V14.01,2013-01-26 19:03:00,
2013-01-26 11:08:00,38.7,31.8,29.88,West,270,2.5,2.5,76,0.00,,---,0.00,VWS V14.01,2013-01-26 19:08:00,
2013-01-26 11:13:00,38.7,32.1,29.88,NW,315,2.5,2.5,77,0.00,,---,0.00,VWS V14.01,2013-01-26 19:13:00,
2013-01-26 11:18:00,38.7,31.8,29.88,South,180,3.1,3.1,76,0.00,,---,0.00,VWS V14.01,2013-01-26 19:18:00,
2013-01-26 11:23:00,38.8,32.3,29.88,NNW,338,0.0,0.0,77,0.00,,---,0.00,VWS V14.01,2013-01-26 19:23:00,
2013-01-26 11:28:00,38.7,32.1,29.88,SSW,202,2.2,2.2,77,0.00,,---,0.00,VWS V14.01,2013-01-26 19:28:00,
2013-01-26 11:33:00,38.1,30.9,29.88,WSW,248,3.1,3.1,75,0.00,,---,0.00,VWS V14.01,2013-01-26 19:33:00,
2013-01-26 11:38:00,38.1,31.2,29.88,WSW,248,2.5,2.5,76,0.00,,---,0.00,VWS V14.01,2013-01-26 19:38:00,
2013-01-26 11:43:00,38.1,31.6,29.88,SW,225,0.0,0.0,77,0.00,,---,0.00,VWS V14.01,2013-01-26 19:43:00,
2013-01-26 11:49:00,38.1,31.6,29.88,WNW,292,2.9,2.9,77,0.00,,---,0.00,VWS V14.01,2013-01-26 19:49:00,
2013-01-26 11:54:00,37.9,30.7,29.88,WSW,248,2.7,2.7,75,0.00,,---,0.00,VWS V14.01,2013-01-26 19:54:00,
2013-01-26 11:59:00,37.9,30.7,29.88,WNW,292,2.9,2.9,75,0.00,,---,0.00,VWS V14.01,2013-01-26 19:59:00,
2013-01-26 12:04:00,37.8,30.9,29.88,WSW,248,0.0,0.0,76,0.00,,---,0.00,VWS V14.01,2013-01-26 20:04:00,
2013-01-26 12:09:00,37.8,30.6,29.88,SSW,202,2.9,2.9,75,0.00,,---,0.00,VWS V14.01,2013-01-26 20:09:00,
2013-01-26 12:14:00,37.9,31.1,29.88,WNW,292,2.7,2.7,76,0.00,,---,0.00,VWS V14.01,2013-01-26 20:14:00,
2013-01-26 12:19:00,37.9,31.1,29.85,WSW,248,2.9,2.9,76,0.00,,---,0.00,VWS V14.01,2013-01-26 20:19:00,
2013-01-26 12:24:00,38.1,31.2,29.85,WNW,292,3.1,3.1,76,0.00,,---,0.00,VWS V14.01,2013-01-26 20:24:00,
2013-01-26 12:29:00,37.9,30.7,29.85,West,270,3.4,3.4,75,0.00,,---,0.00,VWS V14.01,2013-01-26 20:29:00,
2013-01-26 12:34:00,37.9,30.7,29.85,WSW,248,4.3,4.3,75,0.00,,---,0.00,VWS V14.01,2013-01-26 20:34:00,
2013-01-26 12:39:00,37.8,29.6,29.85,West,270,2.0,2.0,72,0.00,,---,0.00,VWS V14.01,2013-01-26 20:39:00,
2013-01-26 12:44:00,37.9,30.4,29.85,WNW,292,2.9,2.9,74,0.00,,---,0.00,VWS V14.01,2013-01-26 20:44:00,
2013-01-26 12:50:00,37.9,30.4,29.85,SSW,202,2.5,2.5,74,0.00,,---,0.00,VWS V14.01,2013-01-26 20:50:00,
2013-01-26 12:55:00,37.8,30.6,29.85,West,270,3.6,3.6,75,0.00,,---,0.00,VWS V14.01,2013-01-26 20:55:00,
2013-01-26 13:00:00,37.8,30.2,29.85,WSW,248,0.0,0.0,74,0.00,,---,0.00,VWS V14.01,2013-01-26 21:00:00,
2013-01-26 13:05:00,37.6,29.7,29.85,SSE,158,3.4,3.4,73,0.00,,---,0.00,VWS V14.01,2013-01-26 21:05:00,
2013-01-26 13:10:00,37.6,30.1,29.85,SSE,158,2.9,2.9,74,0.00,,---,0.00,VWS V14.01,2013-01-26 21:10:00,
2013-01-26 13:15:00,38.1,30.9,29.85,West,270,4.3,4.3,75,0.00,,---,0.00,VWS V14.01,2013-01-26 21:15:00,
2013-01-26 13:20:00,38.3,30.8,29.85,West,270,0.9,0.9,74,0.00,,---,0.00,VWS V14.01,2013-01-26 21:20:00,
2013-01-26 13:25:00,38.5,30.6,29.85,WSW,248,1.1,1.1,73,0.00,,---,0.00,VWS V14.01,2013-01-26 21:25:00,
2013-01-26 13:30:00,38.5,29.9,29.85,WSW,248,1.3,1.3,71,0.00,,---,0.00,VWS V14.01,2013-01-26 21:30:00,
2013-01-26 13:35:00,38.8,30.3,29.85,WSW,248,1.6,1.6,71,0.00,,---,0.00,VWS V14.01,2013-01-26 21:35:00,
2013-01-26 13:40:00,39.6,31.0,29.85,WSW,248,2.7,2.7,71,0.00,,---,0.00,VWS V14.01,2013-01-26 21:40:00,
2013-01-26 13:46:00,39.9,30.9,29.85,WNW,292,2.9,2.9,70,0.00,,---,0.00,VWS V14.01,2013-01-26 21:46:00,
2013-01-26 13:51:00,39.9,30.6,29.85,WNW,292,3.1,3.1,69,0.00,,---,0.00,VWS V14.01,2013-01-26 21:51:00,
2013-01-26 13:56:00,39.9,29.1,29.85,WNW,292,3.1,3.1,65,0.00,,---,0.00,VWS V14.01,2013-01-26 21:56:00,
2013-01-26 14:01:00,39.9,29.9,29.85,WNW,292,2.9,2.9,67,0.00,,---,0.00,VWS V14.01,2013-01-26 22:01:00,
2013-01-26 14:06:00,39.4,29.0,29.85,NW,315,3.8,3.8,66,0.00,,---,0.00,VWS V14.01,2013-01-26 22:06:00,
2013-01-26 14:11:00,39.2,29.2,29.85,WSW,248,0.0,0.0,67,0.00,,---,0.00,VWS V14.01,2013-01-26 22:11:00,
2013-01-26 14:16:00,39.4,29.7,29.85,NNW,338,2.5,2.5,68,0.00,,---,0.00,VWS V14.01,2013-01-26 22:16:00,
2013-01-26 14:21:00,39.2,29.5,29.85,West,270,1.1,1.1,68,0.00,,---,0.00,VWS V14.01,2013-01-26 22:21:00,
2013-01-26 14:26:00,39.2,29.5,29.85,West,270,1.3,1.3,68,0.00,,---,0.00,VWS V14.01,2013-01-26 22:26:00,
2013-01-26 14:31:00,39.2,29.5,29.85,WSW,248,2.9,2.9,68,0.00,,---,0.00,VWS V14.01,2013-01-26 22:31:00,
2013-01-26 14:36:00,39.2,29.5,29.85,West,270,2.9,2.9,68,0.00,,---,0.00,VWS V14.01,2013-01-26 22:36:00,
2013-01-26 14:41:00,39.2,29.5,29.85,WSW,248,2.7,2.7,68,0.00,,---,0.00,VWS V14.01,2013-01-26 22:41:00,
2013-01-26 14:47:00,39.2,29.5,29.85,SW,225,2.7,2.7,68,0.00,,---,0.00,VWS V14.01,2013-01-26 22:47:00,
2013-01-26 14:52:00,38.8,29.2,29.85,WSW,248,2.7,2.7,68,0.00,,---,0.00,VWS V14.01,2013-01-26 22:52:00,
2013-01-26 14:57:00,38.7,29.0,29.85,SW,225,0.0,0.0,68,0.00,,---,0.00,VWS V14.01,2013-01-26 22:57:00,
2013-01-26 15:02:00,38.7,29.7,29.85,SW,225,2.0,2.0,70,0.00,,---,0.00,VWS V14.01,2013-01-26 23:02:00,
2013-01-26 15:07:00,38.7,29.4,29.85,SW,225,2.5,2.5,69,0.00,,---,0.00,VWS V14.01,2013-01-26 23:07:00,
2013-01-26 15:12:00,38.3,28.7,29.85,WSW,248,2.7,2.7,68,0.00,,---,0.00,VWS V14.01,2013-01-26 23:12:00,
2013-01-26 15:17:00,37.9,28.0,29.85,WNW,292,3.1,3.1,67,0.00,,---,0.00,VWS V14.01,2013-01-26 23:17:00,
2013-01-26 15:22:00,37.6,28.0,29.85,SW,225,1.1,1.1,68,0.00,,---,0.00,VWS V14.01,2013-01-26 23:22:00,
2013-01-26 15:27:00,37.4,28.2,29.85,WSW,248,0.9,0.9,69,0.00,,---,0.00,VWS V14.01,2013-01-26 23:27:00,
2013-01-26 15:32:00,37.0,28.5,29.85,WSW,248,0.0,0.0,71,0.00,,---,0.00,VWS V14.01,2013-01-26 23:32:00,
2013-01-26 15:37:00,36.9,28.7,29.85,SSW,202,1.6,1.6,72,0.00,,---,0.00,VWS V14.01,2013-01-26 23:37:00,
2013-01-26 15:43:00,36.7,28.5,29.85,WSW,248,1.1,1.1,72,0.00,,---,0.00,VWS V14.01,2013-01-26 23:43:00,
2013-01-26 15:48:00,36.7,28.9,29.85,SSW,202,0.0,0.0,73,0.00,,---,0.00,VWS V14.01,2013-01-26 23:48:00,
2013-01-26 15:53:00,36.5,28.7,29.85,SW,225,0.0,0.0,73,0.00,,---,0.00,VWS V14.01,2013-01-26 23:53:00,
2013-01-26 15:58:00,36.3,28.8,29.85,SSW,202,2.2,2.2,74,0.00,,---,0.00,VWS V14.01,2013-01-26 23:58:00,
2013-01-26 16:03:00,36.3,28.8,29.82,SW,225,3.1,3.1,74,0.00,,---,0.00,VWS V14.01,2013-01-27 00:03:00,
2013-01-26 16:08:00,36.1,28.7,29.82,South,180,0.0,0.0,74,0.00,,---,0.00,VWS V14.01,2013-01-27 00:08:00,
2013-01-26 16:13:00,36.0,28.5,29.82,SE,135,2.0,2.0,74,0.00,,---,0.00,VWS V14.01,2013-01-27 00:13:00,
2013-01-26 16:18:00,35.8,28.3,29.85,SSE,158,0.0,0.0,74,0.00,,---,0.00,VWS V14.01,2013-01-27 00:18:00,
2013-01-26 16:23:00,35.8,28.6,29.85,SW,225,2.5,2.5,75,0.00,,---,0.00,VWS V14.01,2013-01-27 00:23:00,
2013-01-26 16:28:00,35.6,28.5,29.85,SSW,202,0.0,0.0,75,0.00,,---,0.00,VWS V14.01,2013-01-27 00:28:00,
2013-01-26 16:33:00,35.4,28.6,29.82,SSE,158,0.0,0.0,76,0.00,,---,0.00,VWS V14.01,2013-01-27 00:33:00,
2013-01-26 16:39:00,35.4,28.6,29.82,South,180,2.7,2.7,76,0.00,,---,0.00,VWS V14.01,2013-01-27 00:39:00,
2013-01-26 16:44:00,35.2,28.5,29.82,WSW,248,0.0,0.0,76,0.00,,---,0.00,VWS V14.01,2013-01-27 00:44:00,
2013-01-26 16:49:00,35.1,28.3,29.82,SSE,158,0.0,0.0,76,0.00,,---,0.00,VWS V14.01,2013-01-27 00:49:00,
2013-01-26 16:54:00,35.1,28.6,29.82,ESE,112,1.1,1.1,77,0.00,,---,0.00,VWS V14.01,2013-01-27 00:54:00,
2013-01-26 16:59:00,34.9,28.4,29.82,SE,135,2.5,2.5,77,0.00,,---,0.00,VWS V14.01,2013-01-27 00:59:00,
2013-01-26 17:04:00,34.9,28.4,29.85,SSE,158,2.7,2.7,77,0.00,,---,0.00,VWS V14.01,2013-01-27 01:04:00,
2013-01-26 17:09:00,34.9,28.7,29.85,SSE,158,1.6,1.6,78,0.00,,---,0.00,VWS V14.01,2013-01-27 01:09:00,
2013-01-26 17:14:00,34.9,28.7,29.85,South,180,0.0,0.0,78,0.00,,---,0.00,VWS V14.01,2013-01-27 01:14:00,
2013-01-26 17:19:00,34.7,28.5,29.85,WNW,292,0.0,0.0,78,0.00,,---,0.00,VWS V14.01,2013-01-27 01:19:00,
2013-01-26 17:24:00,34.7,28.5,29.85,WNW,292,0.0,0.0,78,0.00,,---,0.00,VWS V14.01,2013-01-27 01:24:00,
2013-01-26 17:29:00,34.7,28.5,29.85,WNW,292,0.0,0.0,78,0.00,,---,0.00,VWS V14.01,2013-01-27 01:29:00,
2013-01-26 17:34:00,34.5,28.4,29.85,WNW,292,0.0,0.0,78,0.00,,---,0.00,VWS V14.01,2013-01-27 01:34:00,
2013-01-26 17:39:00,34.5,28.7,29.85,West,270,0.0,0.0,79,0.00,,---,0.00,VWS V14.01,2013-01-27 01:39:00,
2013-01-26 17:44:00,34.5,28.7,29.85,West,270,0.0,0.0,79,0.00,,---,0.00,VWS V14.01,2013-01-27 01:44:00,
2013-01-26 17:50:00,34.5,28.7,29.85,SSE,158,0.0,0.0,79,0.00,,---,0.00,VWS V14.01,2013-01-27 01:50:00,
2013-01-26 17:55:00,34.5,28.7,29.85,SW,225,0.0,0.0,79,0.00,,---,0.00,VWS V14.01,2013-01-27 01:55:00,
2013-01-26 18:00:00,34.5,29.0,29.85,WSW,248,0.0,0.0,80,0.00,,---,0.00,VWS V14.01,2013-01-27 02:00:00,
2013-01-26 18:05:00,34.5,29.0,29.85,SW,225,0.0,0.0,80,0.00,,---,0.00,VWS V14.01,2013-01-27 02:05:00,
2013-01-26 18:10:00,34.5,29.0,29.85,West,270,0.0,0.0,80,0.00,,---,0.00,VWS V14.01,2013-01-27 02:10:00,
2013-01-26 18:15:00,34.5,29.3,29.85,West,270,2.9,2.9,81,0.00,,---,0.00,VWS V14.01,2013-01-27 02:15:00,
2013-01-26 18:20:00,34.7,29.8,29.85,West,270,2.0,2.0,82,0.00,,---,0.00,VWS V14.01,2013-01-27 02:20:00,
2013-01-26 18:25:00,34.7,29.8,29.85,West,270,2.0,2.0,82,0.00,,---,0.00,VWS V14.01,2013-01-27 02:25:00,
2013-01-26 18:30:00,34.5,29.6,29.85,West,270,0.9,0.9,82,0.00,,---,0.00,VWS V14.01,2013-01-27 02:30:00,
2013-01-26 18:35:00,34.5,29.6,29.85,WNW,292,1.6,1.6,82,0.00,,---,0.00,VWS V14.01,2013-01-27 02:35:00,
2013-01-26 18:40:00,34.5,29.6,29.85,WSW,248,2.0,2.0,82,0.00,,---,0.00,VWS V14.01,2013-01-27 02:40:00,
2013-01-26 18:45:00,34.5,29.6,29.88,WSW,248,3.4,3.4,82,0.00,,---,0.00,VWS V14.01,2013-01-27 02:45:00,
2013-01-26 18:51:00,34.5,29.6,29.88,West,270,2.9,2.9,82,0.00,,---,0.00,VWS V14.01,2013-01-27 02:51:00,
2013-01-26 18:56:00,34.5,29.6,29.88,WNW,292,1.3,1.3,82,0.00,,---,0.00,VWS V14.01,2013-01-27 02:56:00,
2013-01-26 19:01:00,34.5,29.6,29.88,WSW,248,0.0,0.0,82,0.00,,---,0.00,VWS V14.01,2013-01-27 03:01:00,
2013-01-26 19:06:00,34.5,29.6,29.88,WNW,292,2.7,2.7,82,0.00,,---,0.00,VWS V14.01,2013-01-27 03:06:00,
2013-01-26 19:11:00,34.5,29.9,29.88,SW,225,2.7,2.7,83,0.00,,---,0.00,VWS V14.01,2013-01-27 03:11:00,
2013-01-26 19:16:00,34.5,29.9,29.88,West,270,1.1,1.1,83,0.00,,---,0.00,VWS V14.01,2013-01-27 03:16:00,
2013-01-26 19:21:00,34.5,29.9,29.88,WSW,248,0.0,0.0,83,0.00,,---,0.00,VWS V14.01,2013-01-27 03:21:00,
2013-01-26 19:26:00,34.3,29.7,29.88,West,270,0.9,0.9,83,0.00,,---,0.00,VWS V14.01,2013-01-27 03:26:00,
2013-01-26 19:31:00,34.3,29.7,29.88,WSW,248,1.3,1.3,83,0.00,,---,0.00,VWS V14.01,2013-01-27 03:31:00,
2013-01-26 19:36:00,34.3,29.7,29.88,WSW,248,1.3,1.3,83,0.00,,---,0.00,VWS V14.01,2013-01-27 03:36:00,
2013-01-26 19:41:00,34.3,29.7,29.88,West,270,2.0,2.0,83,0.00,,---,0.00,VWS V14.01,2013-01-27 03:41:00,
2013-01-26 19:47:00,34.3,29.7,29.88,WSW,248,2.2,2.2,83,0.00,,---,0.00,VWS V14.01,2013-01-27 03:47:00,
2013-01-26 19:52:00,34.2,29.5,29.88,WSW,248,1.1,1.1,83,0.00,,---,0.00,VWS V14.01,2013-01-27 03:52:00,
2013-01-26 19:57:00,34.2,29.8,29.88,SW,225,0.0,0.0,84,0.00,,---,0.00,VWS V14.01,2013-01-27 03:57:00,
2013-01-26 20:02:00,34.2,29.8,29.88,WSW,248,1.3,1.3,84,0.00,,---,0.00,VWS V14.01,2013-01-27 04:02:00,
2013-01-26 20:07:00,34.2,29.8,29.88,SW,225,0.9,0.9,84,0.00,,---,0.00,VWS V14.01,2013-01-27 04:07:00,
2013-01-26 20:12:00,34.0,29.7,29.88,SSW,202,0.0,0.0,84,0.00,,---,0.00,VWS V14.01,2013-01-27 04:12:00,
2013-01-26 20:17:00,34.0,29.7,29.88,WSW,248,2.0,2.0,84,0.00,,---,0.00,VWS V14.01,2013-01-27 04:17:00,
2013-01-26 20:22:00,34.0,29.7,29.88,West,270,0.0,0.0,84,0.00,,---,0.00,VWS V14.01,2013-01-27 04:22:00,
2013-01-26 20:27:00,34.0,29.7,29.88,West,270,2.0,2.0,84,0.00,,---,0.00,VWS V14.01,2013-01-27 04:27:00,
2013-01-26 20:32:00,34.0,29.7,29.85,WSW,248,0.9,0.9,84,0.00,,---,0.00,VWS V14.01,2013-01-27 04:32:00,
2013-01-26 20:37:00,34.0,29.7,29.85,SW,225,2.0,2.0,84,0.00,,---,0.00,VWS V14.01,2013-01-27 04:37:00,
2013-01-26 20:43:00,34.0,29.7,29.85,WSW,248,2.7,2.7,84,0.00,,---,0.00,VWS V14.01,2013-01-27 04:43:00,
2013-01-26 20:48:00,34.0,29.4,29.88,West,270,3.1,3.1,83,0.00,,---,0.00,VWS V14.01,2013-01-27 04:48:00,
2013-01-26 20:53:00,34.0,29.4,29.88,WSW,248,4.0,4.0,83,0.00,,---,0.00,VWS V14.01,2013-01-27 04:53:00,
2013-01-26 20:58:00,34.0,29.1,29.88,WSW,248,1.6,1.6,82,0.00,,---,0.00,VWS V14.01,2013-01-27 04:58:00,
2013-01-26 21:00:00,34.0,29.1,29.88,WSW,248,0.0,0.0,82,0.00,,---,0.00,VWS V14.01,2013-01-27 05:00:00,
2013-01-26 21:01:00,34.0,29.1,29.88,WSW,248,0.0,0.0,82,0.00,,---,0.00,VWS V14.01,2013-01-27 05:01:00,
2013-01-26 21:02:00,34.0,29.1,29.88,WSW,248,2.7,2.7,82,0.00,,---,0.00,VWS V14.01,2013-01-27 05:02:00,
2013-01-26 21:07:00,33.8,28.9,29.88,West,270,2.9,2.9,82,0.00,,---,0.00,VWS V14.01,2013-01-27 05:07:00,
2013-01-26 21:12:00,33.8,28.9,29.88,WNW,292,2.5,2.5,82,0.00,,---,0.00,VWS V14.01,2013-01-27 05:12:00,
2013-01-26 21:17:00,33.8,28.6,29.91,West,270,2.0,2.0,81,0.00,,---,0.00,VWS V14.01,2013-01-27 05:17:00,
2013-01-26 21:22:00,33.6,28.7,29.91,WSW,248,3.8,3.8,82,0.00,,---,0.00,VWS V14.01,2013-01-27 05:22:00,
2013-01-26 21:27:00,33.6,28.7,29.91,West,270,3.6,3.6,82,0.00,,---,0.00,VWS V14.01,2013-01-27 05:27:00,
2013-01-26 21:33:00,33.6,28.7,29.88,WSW,248,2.0,2.0,82,0.00,,---,0.00,VWS V14.01,2013-01-27 05:33:00,
2013-01-26 21:38:00,33.4,28.5,29.88,West,270,2.9,2.9,82,0.00,,---,0.00,VWS V14.01,2013-01-27 05:38:00,
2013-01-26 21:43:00,33.4,28.8,29.88,WSW,248,4.0,4.0,83,0.00,,---,0.00,VWS V14.01,2013-01-27 05:43:00,
2013-01-26 21:48:00,33.4,28.8,29.91,NW,315,0.0,0.0,83,0.00,,---,0.00,VWS V14.01,2013-01-27 05:48:00,
2013-01-26 21:53:00,33.4,28.8,29.91,WNW,292,1.6,1.6,83,0.00,,---,0.00,VWS V14.01,2013-01-27 05:53:00,
2013-01-26 21:58:00,33.4,28.8,29.91,West,270,1.3,1.3,83,0.00,,---,0.00,VWS V14.01,2013-01-27 05:58:00,
2013-01-26 22:03:00,33.4,29.1,29.94,West,270,2.0,2.0,84,0.00,,---,0.00,VWS V14.01,2013-01-27 06:03:00,
2013-01-26 22:08:00,33.4,29.1,29.94,WNW,292,1.6,1.6,84,0.00,,---,0.00,VWS V14.01,2013-01-27 06:08:00,
2013-01-26 22:13:00,33.4,29.1,29.94,West,270,1.6,1.6,84,0.00,,---,0.00,VWS V14.01,2013-01-27 06:13:00,
2013-01-26 22:18:00,33.4,29.1,29.91,WSW,248,2.0,2.0,84,0.00,,---,0.00,VWS V14.01,2013-01-27 06:18:00,
2013-01-26 22:23:00,33.3,29.2,29.91,WNW,292,5.8,5.8,85,0.00,,---,0.00,VWS V14.01,2013-01-27 06:23:00,
2013-01-26 22:28:00,33.3,29.2,29.91,WSW,248,0.0,0.0,85,0.00,,---,0.00,VWS V14.01,2013-01-27 06:28:00,
2013-01-26 22:34:00,33.3,29.2,29.94,South,180,1.1,1.1,85,0.00,,---,0.00,VWS V14.01,2013-01-27 06:34:00,
2013-01-26 22:39:00,33.3,29.2,29.94,South,180,1.6,1.6,85,0.00,,---,0.00,VWS V14.01,2013-01-27 06:39:00,
2013-01-26 22:44:00,33.3,29.2,29.94,WSW,248,0.0,0.0,85,0.00,,---,0.00,VWS V14.01,2013-01-27 06:44:00,
2013-01-26 22:49:00,33.1,29.1,29.94,South,180,2.7,2.7,85,0.00,,---,0.00,VWS V14.01,2013-01-27 06:49:00,
2013-01-26 22:54:00,33.1,29.1,29.94,SSE,158,2.0,2.0,85,0.00,,---,0.00,VWS V14.01,2013-01-27 06:54:00,
2013-01-26 22:59:00,33.1,29.1,29.94,South,180,2.7,2.7,85,0.00,,---,0.00,VWS V14.01,2013-01-27 06:59:00,
2013-01-26 23:04:00,33.1,29.1,29.94,SW,225,1.1,1.1,85,0.00,,---,0.00,VWS V14.01,2013-01-27 07:04:00,
2013-01-26 23:09:00,33.1,29.1,29.94,SE,135,1.3,1.3,85,0.00,,---,0.00,VWS V14.01,2013-01-27 07:09:00,
2013-01-26 23:14:00,33.1,29.1,29.94,SSW,202,0.0,0.0,85,0.00,,---,0.00,VWS V14.01,2013-01-27 07:14:00,
2013-01-26 23:19:00,32.9,28.9,29.97,SSE,158,0.0,0.0,85,0.00,,---,0.00,VWS V14.01,2013-01-27 07:19:00,
2013-01-26 23:24:00,32.9,29.2,29.97,South,180,2.2,2.2,86,0.00,,---,0.00,VWS V14.01,2013-01-27 07:24:00,
2013-01-26 23:29:00,32.9,29.2,29.97,SSW,202,0.0,0.0,86,0.00,,---,0.00,VWS V14.01,2013-01-27 07:29:00,
2013-01-26 23:34:00,32.9,29.2,29.94,SW,225,0.0,0.0,86,0.00,,---,0.00,VWS V14.01,2013-01-27 07:34:00,
2013-01-26 23:40:00,32.9,29.2,29.94,South,180,1.6,1.6,86,0.00,,---,0.00,VWS V14.01,2013-01-27 07:40:00,
2013-01-26 23:45:00,32.7,29.0,29.94,SSE,158,0.0,0.0,86,0.00,,---,0.00,VWS V14.01,2013-01-27 07:45:00,
2013-01-26 23:50:00,32.7,29.0,29.94,NW,315,0.0,0.0,86,0.00,,---,0.00,VWS V14.01,2013-01-27 07:50:00,
2013-01-26 23:55:00,32.7,29.0,29.94,ENE,68,0.0,0.0,86,0.00,,---,0.00,VWS V14.01,2013-01-27 07:55:00,